Weather History for KFST - September, 2012

Change the Weather History Date:

Friday, September 28, 2012

  Actual Average Record
Temperature  
Mean Temperature 66 °F -  
Max Temperature 68 °F 83 °F 99 °F (2005)
Min Temperature 64 °F 59 °F 45 °F (1996)
Cooling Degree Days 1    
Growing Degree Days 16 (Base 50)    
Moisture  
Dew Point 64 °F    
Average Humidity 95    
Maximum Humidity 100    
Minimum Humidity 87    
Precipitation  
Precipitation 1.68 in - - ()
Sea Level Pressure  
Sea Level Pressure 30.00 in    
Wind  
Wind Speed 7 mph (East)    
Max Wind Speed 20 mph    
Max Gust Speed 25 mph    
Visibility 6 miles    
Events Rain    
Averages and records for this station are not official NWS values.
T = Trace of Precipitation, MM = Missing Value Source: NWS Daily Summary

Daily Weather History Graph

Daily Weather History Graph

Search for Another Location

Airport or City:

Trip Planner

Search our weather history database for the weather conditions in past years. The results will help you decide how hot, cold, wet, or windy it might be!

Date:

Astronomy

Sep. 28, 2012 Rise Set
Actual Time 7:43 AM CDT 7:39 PM CDT
Civil Twilight 7:19 AM CDT 8:03 PM CDT
Nautical Twilight 6:51 AM CDT 8:31 PM CDT
Astronomical Twilight 6:23 AM CDT 9:00 PM CDT
Moon 6:42 PM CDT (9/28) 6:19 AM CDT (9/28)
Length of Visible Light 12h 44m
Length of Day
11h 56m
Waxing Gibbous, 98% of the Moon is Illuminated
Sep 28
Waxing Gibbous
Sep 29
Full
Oct 8
Last Quarter
Oct 15
New
Oct 21
First Quarter

Hourly Weather History & Observations

Time (CDT) Temp. Dew Point Humidity Pressure Visibility Wind Dir Wind Speed Gust Speed Precip Events Conditions
12:53 AM 66.0 °F 63.0 °F 90% 29.98 in 10.0 mi NW 3.5 mph - N/A   Mostly Cloudy
1:53 AM 66.0 °F 64.0 °F 93% 29.97 in 10.0 mi North 3.5 mph - N/A   Mostly Cloudy
2:53 AM 66.0 °F 64.0 °F 93% 29.97 in 10.0 mi Calm Calm - N/A   Mostly Cloudy
3:21 AM 66.2 °F 64.4 °F 94% 30.08 in 10.0 mi Calm Calm - N/A   Overcast
3:53 AM 64.9 °F 64.0 °F 97% 29.96 in 9.0 mi Calm Calm - 0.00 in Rain Light Rain
4:18 AM 64.4 °F 64.4 °F 100% 30.08 in 7.0 mi Calm Calm - 0.00 in   Mostly Cloudy
4:53 AM 64.9 °F 64.0 °F 97% 29.97 in 4.0 mi WNW 4.6 mph - 0.03 in Rain Light Rain
5:16 AM 64.4 °F 64.4 °F 100% 30.07 in 4.0 mi WNW 3.5 mph - 0.02 in Rain Light Rain
5:28 AM 64.4 °F 64.4 °F 100% 30.07 in 4.0 mi WNW 3.5 mph - 0.04 in Rain Light Rain
5:53 AM 64.9 °F 64.0 °F 97% 29.95 in 5.0 mi Calm Calm - 0.05 in Rain Light Rain
6:53 AM 64.9 °F 64.0 °F 97% 29.94 in 4.0 mi East 3.5 mph - 0.00 in   Mostly Cloudy
7:53 AM 64.9 °F 64.0 °F 97% 29.96 in 5.0 mi Calm Calm - N/A   Overcast
8:32 AM 66.2 °F 64.4 °F 94% 30.07 in 3.0 mi NNE 4.6 mph - 0.00 in Rain Light Rain
8:53 AM 66.0 °F 64.9 °F 96% 29.96 in 3.0 mi NE 5.8 mph - 0.01 in Rain Light Rain
9:53 AM 66.9 °F 64.9 °F 93% 29.99 in 6.0 mi ENE 9.2 mph - 0.00 in   Overcast
10:53 AM 68.0 °F 66.0 °F 93% 29.99 in 5.0 mi NE 8.1 mph - 0.00 in Rain Light Rain
11:44 AM 68.0 °F 66.2 °F 94% 30.10 in 2.5 mi East 16.1 mph 24.2 mph 0.05 in Rain Light Rain
11:46 AM 66.2 °F 64.4 °F 94% 30.10 in 1.8 mi East 19.6 mph 24.2 mph 0.10 in Rain Rain
11:51 AM 64.4 °F 62.6 °F 94% 30.10 in 1.2 mi ESE 15.0 mph 25.3 mph 0.13 in Rain Heavy Rain
11:53 AM 66.0 °F 63.0 °F 90% 29.99 in 1.2 mi ESE 17.3 mph 25.3 mph 0.18 in Rain Heavy Rain
12:01 PM 66.2 °F 62.6 °F 88% 30.10 in 2.0 mi ESE 10.4 mph - 0.02 in Rain Light Rain
12:04 PM 66.2 °F 62.6 °F 88% 30.09 in 4.0 mi SE 11.5 mph - 0.03 in Rain Light Rain
12:12 PM 64.4 °F 62.6 °F 94% 30.09 in 1.8 mi SE 12.7 mph 20.7 mph 0.08 in Rain Heavy Rain
12:24 PM 64.4 °F 62.6 °F 94% 30.09 in 1.0 mi SE 19.6 mph 25.3 mph 0.27 in Rain Heavy Rain
12:27 PM 64.4 °F 62.6 °F 94% 30.09 in 1.2 mi ESE 19.6 mph 25.3 mph 0.30 in Rain Heavy Rain
12:45 PM 64.4 °F 62.6 °F 94% 30.09 in 3.0 mi ESE 15.0 mph 21.9 mph 0.41 in Rain Rain
12:53 PM 66.0 °F 62.1 °F 87% 29.98 in 5.0 mi ESE 11.5 mph - 0.41 in Rain Light Rain
1:53 PM 66.0 °F 63.0 °F 90% 29.96 in 6.0 mi East 8.1 mph - 0.09 in Rain Light Rain
2:09 PM 66.2 °F 62.6 °F 88% 30.06 in 4.0 mi ENE 8.1 mph - 0.03 in Rain Rain
2:17 PM 66.2 °F 64.4 °F 94% 30.06 in 9.0 mi ENE 8.1 mph - 0.03 in Rain Light Rain
2:33 PM 64.4 °F 64.4 °F 100% 30.05 in 9.0 mi NE 10.4 mph - 0.04 in Rain Light Rain
2:36 PM 64.4 °F 64.4 °F 100% 30.05 in 8.0 mi NE 10.4 mph - 0.04 in Rain Light Rain
2:53 PM 64.9 °F 63.0 °F 93% 29.94 in 10.0 mi NE 11.5 mph - 0.05 in Rain Light Rain
3:49 PM 66.2 °F 64.4 °F 94% 30.02 in 8.0 mi NE 9.2 mph - 0.01 in Rain Light Rain
3:53 PM 66.0 °F 64.0 °F 93% 29.91 in 8.0 mi NE 10.4 mph - 0.01 in Rain Light Rain
4:00 PM 66.2 °F 64.4 °F 94% 30.02 in 6.0 mi NE 11.5 mph - 0.00 in Rain Light Rain
4:40 PM 66.2 °F 64.4 °F 94% 30.01 in 10.0 mi NE 9.2 mph - 0.01 in Rain Light Rain
4:53 PM 66.0 °F 64.0 °F 93% 29.90 in 8.0 mi NE 10.4 mph - 0.01 in Rain Light Rain
5:53 PM 66.0 °F 64.0 °F 93% 29.88 in 6.0 mi ENE 10.4 mph - 0.03 in Rain Light Rain
6:04 PM 66.2 °F 64.4 °F 94% 29.99 in 8.0 mi East 12.7 mph - 0.01 in Rain Light Rain
6:18 PM 66.2 °F 64.4 °F 94% 29.99 in 7.0 mi East 12.7 mph - 0.01 in Rain Light Rain
6:29 PM 66.2 °F 64.4 °F 94% 29.99 in 5.0 mi ENE 9.2 mph - 0.02 in Rain Light Rain
6:53 PM 66.0 °F 64.9 °F 96% 29.88 in 6.0 mi ENE 8.1 mph - 0.05 in Rain Light Rain
7:53 PM 66.0 °F 64.0 °F 93% 29.88 in 10.0 mi East 11.5 mph - 0.08 in Rain Light Rain
8:26 PM 64.4 °F 64.4 °F 100% 29.98 in 2.5 mi ENE 15.0 mph - 0.11 in Rain Heavy Rain
8:30 PM 64.4 °F 64.4 °F 100% 29.98 in 4.0 mi East 11.5 mph - 0.11 in Rain Light Rain
8:38 PM 64.4 °F 64.4 °F 100% 29.98 in 7.0 mi ENE 12.7 mph - 0.11 in Rain Light Rain
8:53 PM 64.9 °F 64.0 °F 97% 29.87 in 10.0 mi ENE 9.2 mph - 0.12 in Rain Light Rain
9:06 PM 64.4 °F 64.4 °F 100% 29.98 in 5.0 mi ENE 10.4 mph - 0.04 in Rain Rain
9:12 PM 64.4 °F 64.4 °F 100% 29.98 in 7.0 mi ENE 10.4 mph - 0.05 in Rain Rain
9:45 PM 64.4 °F 64.4 °F 100% 29.99 in 1.8 mi Calm Calm - 0.35 in Rain Heavy Rain
9:53 PM 64.9 °F 64.0 °F 97% 29.88 in 1.2 mi SW 8.1 mph - 0.43 in Rain Heavy Rain
9:59 PM 66.2 °F 64.4 °F 94% 29.99 in 3.0 mi SW 5.8 mph - 0.01 in Rain Rain
10:06 PM 66.2 °F 64.4 °F 94% 29.99 in 5.0 mi SSW 6.9 mph - 0.02 in Rain Light Rain
10:27 PM 66.2 °F 64.4 °F 94% 30.00 in 6.0 mi South 4.6 mph - 0.05 in Rain Rain
10:37 PM 66.2 °F 64.4 °F 94% 30.00 in 7.0 mi South 4.6 mph - 0.06 in Rain Light Rain
10:53 PM 66.0 °F 64.0 °F 93% 29.89 in 7.0 mi SSE 5.8 mph - 0.08 in Rain Light Rain
11:02 PM 66.2 °F 64.4 °F 94% 30.00 in 7.0 mi SSE 5.8 mph - 0.01 in Rain Light Rain
11:16 PM 66.2 °F 64.4 °F 94% 29.99 in 9.0 mi SSE 6.9 mph - 0.02 in Rain Light Rain
11:43 PM 66.2 °F 64.4 °F 94% 29.99 in 9.0 mi SW 4.6 mph - 0.04 in Rain Light Rain
11:53 PM 66.0 °F 64.0 °F 93% 29.88 in 8.0 mi WSW 4.6 mph - 0.05 in Rain Light Rain